• In United Kingdom
  • List of Countries
  • For 7 days
  • Water Temperature
  • Satellite Maps
  • Weather Map
  • Weather Widgets
  • user-avatar
    Login

    Hourly Weather Canillo

    Today, 13 December, Wednesday

    Time Temperature Precipitation Wind Pressure Humidity
    00:00 -9°C° 0 mm 2 mps 616 mmHg 43%
    01:00 -8°C° 0 mm 1 mps 616 mmHg 42%
    02:00 -8°C° 0 mm 1 mps 616 mmHg 41%
    03:00 -7°C° 0 mm 1 mps 616 mmHg 39%
    04:00 -7°C° 0 mm 1 mps 616 mmHg 40%
    05:00 -7°C° 0 mm 1 mps 617 mmHg 42%
    06:00 -7°C° 0 mm 1 mps 617 mmHg 43%
    07:00 -4°C° 0 mm 1 mps 617 mmHg 43%
    08:00 -3°C° 0 mm 1 mps 618 mmHg 44%
    09:00 -1°C° 0 mm 1 mps 619 mmHg 45%
    10:00 0°C° 0 mm 1 mps 620 mmHg 45%
    11:00 +2°C° 0 mm 1 mps 620 mmHg 45%
    12:00 +4°C° 0 mm 1 mps 621 mmHg 46%
    13:00 +4°C° 0 mm 1 mps 620 mmHg 50%
    14:00 +3°C° 0 mm 1 mps 620 mmHg 55%
    15:00 +3°C° 0 mm 1 mps 619 mmHg 60%
    16:00 +2°C° 0 mm 1 mps 619 mmHg 63%
    17:00 0°C° 0 mm 1 mps 618 mmHg 66%
    18:00 -1°C° 0 mm 1 mps 618 mmHg 69%
    19:00 0°C° 0.1 mm 1 mps 618 mmHg 68%
    20:00 0°C° 0.1 mm 1 mps 618 mmHg 68%
    21:00 +1°C° 0.1 mm 1 mps 618 mmHg 67%
    22:00 +1°C° 0.2 mm 1 mps 618 mmHg 69%
    23:00 -1°C° 0.2 mm 2 mps 618 mmHg 72%

    Tomorrow, 14 December, Thursday

    Time Temperature Precipitation Wind Pressure Humidity
    00:00 +1°C° 0.2 mm 2 mps 618 mmHg 75%
    01:00 +1°C° 0.1 mm 2 mps 618 mmHg 79%
    02:00 +1°C° 0.1 mm 2 mps 618 mmHg 83%
    03:00 +2°C° 0.1 mm 1 mps 617 mmHg 87%
    04:00 +2°C° 0 mm 1 mps 617 mmHg 88%
    05:00 +2°C° 0 mm 1 mps 617 mmHg 89%
    06:00 +1°C° 0 mm 1 mps 616 mmHg 90%
    07:00 +2°C° 0 mm 1 mps 617 mmHg 87%
    08:00 +2°C° 0 mm 1 mps 617 mmHg 85%
    09:00 +3°C° 0 mm 1 mps 617 mmHg 82%
    10:00 +4°C° 0.1 mm 1 mps 617 mmHg 83%
    11:00 +4°C° 0.1 mm 1 mps 617 mmHg 84%
    12:00 +3°C° 0.1 mm 2 mps 617 mmHg 84%
    13:00 +4°C° 0.1 mm 2 mps 616 mmHg 85%
    14:00 +5°C° 0.1 mm 1 mps 616 mmHg 85%
    15:00 +5°C° 0.1 mm 1 mps 615 mmHg 85%
    16:00 +4°C° 0.1 mm 1 mps 614 mmHg 87%
    17:00 +3°C° 0.1 mm 1 mps 614 mmHg 89%
    18:00 +2°C° 0.1 mm 1 mps 613 mmHg 91%
    19:00 +2°C° 0 mm 1 mps 613 mmHg 90%
    20:00 +2°C° 0 mm 1 mps 613 mmHg 90%
    21:00 +2°C° 0 mm 1 mps 613 mmHg 89%
    22:00 +2°C° 0 mm 1 mps 613 mmHg 89%
    23:00 +2°C° 0 mm 1 mps 613 mmHg 90%

    Day after tomorrow, 15 December, Friday

    Time Temperature Precipitation Wind Pressure Humidity
    00:00 +2°C° 0 mm 1 mps 613 mmHg 90%
    01:00 +2°C° 0.1 mm 1 mps 612 mmHg 92%
    02:00 +2°C° 0.1 mm 1 mps 612 mmHg 93%
    03:00 +2°C° 0.1 mm 1 mps 612 mmHg 94%
    04:00 +2°C° 0.2 mm 1 mps 611 mmHg 94%
    05:00 -1°C° 0.2 mm 2 mps 611 mmHg 95%
    06:00 -1°C° 0.2 mm 2 mps 611 mmHg 95%
    07:00 -1°C° 0.6 mm 2 mps 611 mmHg 94%
    08:00 -1°C° 0.6 mm 2 mps 612 mmHg 93%
    09:00 -1°C° 0.6 mm 2 mps 612 mmHg 92%
    10:00 -1°C° 0.6 mm 2 mps 612 mmHg 90%
    11:00 -1°C° 0.6 mm 3 mps 612 mmHg 88%
    12:00 -1°C° 0.6 mm 3 mps 612 mmHg 85%
    13:00 -1°C° 0.2 mm 3 mps 612 mmHg 82%
    14:00 -1°C° 0.2 mm 3 mps 612 mmHg 79%
    15:00 -1°C° 0.2 mm 3 mps 612 mmHg 76%
    16:00 -4°C° 0.1 mm 3 mps 611 mmHg 78%
    17:00 -6°C° 0.1 mm 3 mps 611 mmHg 79%
    18:00 -6°C° 0.1 mm 2 mps 611 mmHg 81%
    19:00 -6°C° 0 mm 2 mps 611 mmHg 81%
    20:00 -6°C° 0 mm 2 mps 612 mmHg 81%
    21:00 -6°C° 0 mm 2 mps 612 mmHg 80%
    22:00 -6°C° 0 mm 2 mps 613 mmHg 81%
    23:00 -6°C° 0 mm 2 mps 613 mmHg 82%

    16 December, Saturday

    Time Temperature Precipitation Wind Pressure Humidity
    00:00 -6°C° 0 mm 2 mps 613 mmHg 83%
    01:00 -7°C° 0 mm 2 mps 613 mmHg 83%
    02:00 -7°C° 0 mm 2 mps 613 mmHg 83%
    03:00 -7°C° 0 mm 2 mps 613 mmHg 82%
    04:00 -8°C° 0 mm 2 mps 613 mmHg 81%
    05:00 -9°C° 0 mm 3 mps 613 mmHg 79%
    06:00 -10°C° 0 mm 3 mps 613 mmHg 78%
    07:00 -8°C° 0 mm 3 mps 614 mmHg 74%
    08:00 -7°C° 0 mm 3 mps 614 mmHg 71%
    09:00 -5°C° 0 mm 2 mps 615 mmHg 68%
    10:00 -5°C° 0 mm 3 mps 616 mmHg 66%
    11:00 -4°C° 0 mm 3 mps 616 mmHg 63%
    12:00 -2°C° 0 mm 3 mps 616 mmHg 61%
    13:00 -2°C° 0 mm 3 mps 616 mmHg 63%
    14:00 -4°C° 0 mm 3 mps 616 mmHg 64%
    15:00 -4°C° 0 mm 3 mps 616 mmHg 66%
    16:00 -5°C° 0 mm 3 mps 616 mmHg 70%
    17:00 -6°C° 0 mm 2 mps 616 mmHg 74%
    18:00 -7°C° 0 mm 2 mps 616 mmHg 78%
    19:00 -7°C° 0.1 mm 2 mps 616 mmHg 78%
    20:00 -7°C° 0.1 mm 2 mps 616 mmHg 79%
    21:00 -7°C° 0.1 mm 2 mps 617 mmHg 79%
    22:00 -8°C° 0.1 mm 3 mps 617 mmHg 80%
    23:00 -8°C° 0.1 mm 3 mps 617 mmHg 80%

    17 December, Sunday

    Time Temperature Precipitation Wind Pressure Humidity
    00:00 -8°C° 0.1 mm 3 mps 617 mmHg 81%
    01:00 -9°C° 0 mm 3 mps 618 mmHg 81%
    02:00 -9°C° 0 mm 3 mps 618 mmHg 81%
    03:00 -9°C° 0 mm 3 mps 618 mmHg 81%
    04:00 -10°C° 0 mm 3 mps 618 mmHg 79%
    05:00 -10°C° 0 mm 3 mps 618 mmHg 77%
    06:00 -12°C° 0 mm 3 mps 618 mmHg 75%
    07:00 -10°C° 0 mm 3 mps 619 mmHg 70%
    08:00 -9°C° 0 mm 3 mps 620 mmHg 66%
    09:00 -8°C° 0 mm 3 mps 620 mmHg 61%
    10:00 -7°C° 0 mm 3 mps 621 mmHg 59%
    11:00 -5°C° 0 mm 3 mps 621 mmHg 57%
    12:00 -4°C° 0 mm 3 mps 622 mmHg 55%
    13:00 -4°C° 0 mm 3 mps 622 mmHg 58%
    14:00 -5°C° 0 mm 3 mps 621 mmHg 61%
    15:00 -5°C° 0 mm 3 mps 621 mmHg 64%
    16:00 -6°C° 0 mm 3 mps 621 mmHg 68%
    17:00 -7°C° 0 mm 3 mps 621 mmHg 72%
    18:00 -7°C° 0 mm 3 mps 621 mmHg 76%
    19:00 -7°C° 0 mm 3 mps 622 mmHg 78%
    20:00 -7°C° 0 mm 3 mps 622 mmHg 79%
    21:00 -7°C° 0 mm 3 mps 622 mmHg 80%
    22:00 -6°C° 0 mm 2 mps 622 mmHg 81%
    23:00 -7°C° 0 mm 2 mps 622 mmHg 82%

    18 December, Monday

    Time Temperature Precipitation Wind Pressure Humidity
    00:00 -7°C° 0 mm 2 mps 622 mmHg 83%
    01:00 -7°C° 0 mm 2 mps 622 mmHg 83%
    02:00 -8°C° 0 mm 2 mps 622 mmHg 83%
    03:00 -8°C° 0 mm 2 mps 622 mmHg 82%
    04:00 -8°C° 0 mm 2 mps 622 mmHg 80%
    05:00 -8°C° 0 mm 2 mps 622 mmHg 78%
    06:00 -9°C° 0 mm 2 mps 622 mmHg 76%
    07:00 -8°C° 0 mm 2 mps 623 mmHg 72%
    08:00 -6°C° 0 mm 2 mps 624 mmHg 69%
    09:00 -5°C° 0 mm 2 mps 625 mmHg 65%
    10:00 -4°C° 0 mm 2 mps 625 mmHg 62%
    11:00 -3°C° 0 mm 2 mps 625 mmHg 59%
    12:00 -1°C° 0 mm 2 mps 626 mmHg 56%
    13:00 -2°C° 0 mm 2 mps 625 mmHg 60%
    14:00 -2°C° 0 mm 2 mps 625 mmHg 63%
    15:00 -3°C° 0 mm 2 mps 625 mmHg 66%
    16:00 -4°C° 0 mm 2 mps 624 mmHg 71%
    17:00 -6°C° 0 mm 2 mps 623 mmHg 75%
    18:00 -7°C° 0 mm 2 mps 623 mmHg 80%
    19:00 -7°C° 0 mm 2 mps 623 mmHg 77%
    20:00 -8°C° 0 mm 2 mps 623 mmHg 75%
    21:00 -9°C° 0 mm 3 mps 623 mmHg 72%
    22:00 -8°C° 0 mm 3 mps 623 mmHg 71%
    23:00 -8°C° 0 mm 3 mps 623 mmHg 70%
    Show more